Hourly Data Report for September 17, 2017

All times are specified in Local Standard Time (LST). Add 1 hour to adjust for Daylight Saving Time where and when it is observed.

GRAND MANAN SAR CS
NEW BRUNSWICK

44°42'43.400" N
66°48'06.900" W
78.20 m
8101925
71030
XGM

Download Data

Hourly Data (September 2017)
Hourly Data Report for September 17, 2017
Temp Definition
°C
Dew Point Temp Definition
°C
Rel Hum Definition
%
Wind Dir Definition
10's deg

Wind Spd Definition
km/h
Visibility Definition
km
Stn Press Definition
kPa
Hmdx Definition


Wind Chill Definition


Weather Definition


TIME
00:00 13.5 13.3 99 31 5   101.18     LegendNANA
01:00 13.6 13.4 99 3 6   101.17     LegendNANA
02:00 13.4 13.3 99 10 5   101.17     LegendNANA
03:00 13.2 13.1 99 8 6   101.20     LegendNANA
04:00 13.2 13.1 99 14 5   101.19     LegendNANA
05:00 13.4 13.3 100 0 1   101.22     LegendNANA
06:00 13.5 13.5 100 4 5   101.28     LegendNANA
07:00 12.9 12.9 100 15 6   101.32     LegendNANA
08:00 13.6 13.6 100 20 6   101.33     LegendNANA
09:00 14.3 14.2 100 22 6   101.37     LegendNANA
10:00 15.4 15.3 100 21 11   101.31     LegendNANA
11:00 16.7 15.9 96 28 5   101.34     LegendNANA
12:00 17.1 14.4 84 8 7   101.34     LegendNANA
13:00 18.4 14.0 75 12 8   101.27     LegendNANA
14:00 19.5 14.6 73 16 9   101.22     LegendNANA
15:00 20.5 15.9 75 19 8   101.21 25   LegendNANA
16:00 17.1 14.0 82 17 16   101.24     LegendNANA
17:00 14.7 13.5 93 21 13   101.22     LegendNANA
18:00 13.7 13.3 97 21 14   101.23     LegendNANA
19:00 13.7 13.4 98 23 6   101.25     LegendNANA
20:00 13.4 13.2 99 22 8   101.28     LegendNANA
21:00 13.4 13.2 99 23 5   101.31     LegendNANA
22:00 13.4 13.2 99 23 4   101.30     LegendNANA
23:00 13.4 13.3 99 22 4   101.34     LegendNANA

Notes on Data Quality.

Legend

  • E = Estimated
  • M = Missing
  • NA = Not Available
  • ‡ = Partner data that is not subject to review by the National Climate Archives
Date modified: